Location: Esp�s Alto
(42.4476°N, 0.5876°E)
Time: 20:21:06
(UTC+00:00)

USA 234 - Pass Details

Date: 22 October 2019
Orbit: 1102 x 1106 km, 123.0° (Epoch: 12 November)

Event Time Altitude Azimuth Distance (km) Brightness Sun altitude
Rises 05:15:16 0° 150° (SSE) 3,907 6.7 -12.3°
Reaches altitude 10° 05:17:50 10° 155° (SSE) 2,951 5.9 -11.8°
Maximum altitude 05:24:05 48° 229° (SW) 1,404 3.6 -10.7°
Drops below altitude 10° 05:30:23 10° 303° (WNW) 2,963 5.0 -9.5°
Enters shadow 05:31:09 - 305° (NW) 3,244 5.2 -9.4°
